Regional Weather Roundup
Issued by NWS

Home | Current Version | Previous Version | Text Only | Print | Product List | Glossary On
Versions: 1 2 3 4 5 6 7 8 9 10 11 12 13 14 15 16 17 18 19 20 21 22 23 24 25 26 27 28 29 30 31 32 33 34 35 36 37 38 39 40 41 42 43 44 45 46 47 48 49 50
000
ASUS43 KMKX 180521
RWRWI

WISCONSIN REGIONAL WEATHER ROUNDUP
NATIONAL WEATHER SERVICE MILWAUKEE/SULLIVAN WI
1200 AM CDT THU SEP 18 2014

NOTE: "FAIR" INDICATES FEW OR NO CLOUDS BELOW 12,000 FEET WITH NO
SIGNIFICANT WEATHER AND/OR OBSTRUCTIONS TO VISIBILITY.

WIZ001-002-006>008-014>016-023>028-180600-
NORTHWEST WISCONSIN

CITY           SKY/WX    TMP DP  RH WIND       PRES   REMARKS
SUPERIOR ARPT  CLOUDY    45  39  82 E8        30.13S
ASHLAND        PTCLDY    41  37  86 NE8       30.15R
HAYWARD        CLOUDY    46  42  86 NE9       30.11R
SIREN          CLOUDY    47  43  85 NE7       30.10R
RICE LAKE      CLEAR     46  44  90 N7        30.09S
LADYSMITH      PTCLDY    46  45  94 N5        30.10S
EAU CLAIRE     CLEAR     54  50  86 NE8       30.05R
MENOMONIE      CLEAR     55  50  85 N7        30.05S
NEW RICHMOND   CLEAR     50  49  95 NE6       30.06R
OSCEOLA        CLEAR     51  51  98 NE8       30.09R
$$

WIZ003>005-009-010-017-018-180600-
NORTH CENTRAL WISCONSIN

CITY           SKY/WX    TMP DP  RH WIND       PRES   REMARKS
WOODRUFF       CLOUDY    45  41  86 NE7       30.10S
RHINELANDER    CLOUDY    46  41  82 NE5       30.10S
EAGLE RIVER    CLOUDY    42  39  88 NE6       30.10S
LAND O LAKES   CLOUDY    40  37  88 NE3       30.13R
PHILLIPS       MOCLDY    46  44  94 NE6       30.09S
TOMAHAWK       PTCLDY    47  43  87 NE5       30.09S
MEDFORD        CLEAR     48  46  94 NE5       30.07R
MERRILL        MOCLDY    50  47  90 NE6       30.08R
$$

WIZ029-030-035-036-043>047-180600-
CENTRAL WISCONSIN

CITY           SKY/WX    TMP DP  RH WIND       PRES   REMARKS
WAUSAU         MOCLDY    51  48  89 E9        30.07R
MOSINEE        PTCLDY    50  50 100 E10       30.08R
MARSHFIELD     CLEAR     54  50  86 NE8       30.05R
STEVENS POINT  PTCLDY    51  48  89 E7        30.07R
WAUPACA        CLEAR     53  49  86 NE6       30.08R
WAUTOMA        PTCLDY    54  52  93 NE10      30.07R
WISC RAPIDS    CLEAR     50  48  93 E6        30.06R
CAMP DOUGLAS   FOG       43  43 100 CALM      30.04R VSB 1/2
$$

WIZ011>013-019>022-031-037>040-048>050-180600-
NORTHEAST WISCONSIN

CITY           SKY/WX    TMP DP  RH WIND       PRES   REMARKS
ANTIGO         CLOUDY    47  45  92 E7        30.09R
STURGEON BAY   CLOUDY    48  39  71 NE10      30.11R
GREEN BAY      CLOUDY    51  47  86 NE20      30.09R
MANITOWOC      PTCLDY    52  47  83 VRB7G17   30.08R
APPLETON       CLOUDY    50  45  81 NE13G23   30.08R
CLINTONVILLE   PTCLDY    46  43  87 E8        30.09R
OSHKOSH        CLOUDY    54  50  86 NE13      30.06R
$$

WIZ032>034-041-042-053>061-180600-
SOUTHWEST WISCONSIN

CITY           SKY/WX    TMP DP  RH WIND       PRES   REMARKS
LA CROSSE      CLEAR     54  52  93 SE5       30.03R
SPARTA         CLEAR     46  45  98 CALM      30.05S
VIROQUA        FAIR      50  50 100 CALM      30.04S
BOSCOBEL       MOCLDY    49  47  93 CALM      30.05R FOG
PRAIRIE DU CHI CLEAR     50  48  93 E5        30.03S
PLATTEVILLE    FAIR      54  49  83 CALM      30.05S
$$

WIZ056-057-062-063-064-067-068-180600-
SOUTH CENTRAL WISCONSIN

CITY           SKY/WX    TMP DP  RH WIND       PRES   REMARKS
BARABOO/DELLS  CLEAR     50  48  93 CALM      30.04S
LONE ROCK      CLEAR     53  48  83 CALM      30.04S
WATERTOWN      CLEAR     47  47  99 CALM      30.04R
MADISON        CLEAR     50  48  93 CALM      30.04R FOG
MIDDLETON      FAIR      49  49  99 CALM      30.04S
MONROE         CLEAR     57  50  77 SE5       30.04S
JANESVILLE     CLEAR     52  48  87 CALM      30.03S
$$

WIZ051-052-058>065-066-070>072-180600-
SOUTHEAST WISCONSIN

CITY           SKY/WX    TMP DP  RH WIND       PRES   REMARKS
MILWAUKEE      CLEAR     55  48  77 SW5       30.04R
WAUKESHA       CLEAR     48  46  93 CALM      30.05S
MILWAUKEE/TIMM CLEAR     50  45  81 CALM      30.04S
RACINE         CLEAR     54  49  83 SW6       30.05S
BURLINGTON     CLEAR     43  43 100 CALM      30.04S FOG
KENOSHA        CLEAR     47  46  97 W5        30.04S
FOND DU LAC    MOCLDY    54  51  90 NE13      30.06R
SHEBOYGAN      CLEAR     52  48  86 NE12      30.06R
WEST BEND      CLEAR     46  45  93 CALM      30.03S
JUNEAU         CLEAR     49  47  93 CALM      30.05R
$$

LSZ147-162-180600-
LAKE SUPERIOR

STATION/POSITION TIME  TEMP    WIND        PRES    WAVE
                       AIR SEA DIR/SP/G            HT/PER
                 (UTC) (F)     (DEG/KT/KT) (MB)    (FT/S)
W MID LAKE BUOY  0450   45 47   70/ 12/ 14 1021.7R   3/ 6
DEVILS ISLAND    0500   45      70/ 15/ 19 1021.7R
PORT WING        0400   45      90/  3/  8 1021.0R
SAXON HARBOR     0400   46      90/  4/  6 1020.7S
$$

LMZ867-665-643>646-180600-
LAKE MICHIGAN

STATION/POSITION TIME  TEMP    WIND        PRES    WAVE
                       AIR SEA DIR/SP/G            HT/PER
                 (UTC) (F)     (DEG/KT/KT) (MB)    (FT/S)
N MID LAKE BUOY  0450   48 59   20/ 17/ 21 1019.1R   4/ 5
NORTHPORT PIER   0500   47      10/ 11/ 21 1020.0R
KEWAUNEE LAKESHO 0500   51      30/ 13/ 18 1017.7R
SHEBOYGAN LAKESH 0500   51 49  350/ 17/ 18 1018.2R
PORT WASHINGTON  0400   53     250/  2/  3 1017.3R
ATWATER BUOY     0500   58     220/  2/  4 1018.1R
MILWAUKEE LAKESH 0500   58     240/  6/  7   N/A
S MID LAKE BUOY  0450   63 65  190/  6/  6 1017.1S   0
KENOSHA   LAKESH 0500   57     240/  6/  7 1016.9S
$$

TC  - TEMPERATURE IN CELSIUS
VSB - VISIBILITY IN STATUTE MILES
WCI - WIND CHILL INDEX
HX  - HEAT INDEX




USA.gov is the U.S. government's official web portal to all federal, state and local government web resources and services.